Time,TemperatureF,DewpointF,PressureIn,WindDirection,WindDirectionDegrees,WindSpeedMPH,WindSpeedGustMPH,Humidity,HourlyPrecipIn,Conditions,Clouds,dailyrainin,SoftwareType,DateUTC
2013-07-18 00:00:00,76.6,63.0,30.34,SSW,202,5.8,14.7,63,0.00,,,0.00,WUHU21636XXSP,2013-07-18 05:00:00,
2013-07-18 00:10:00,76.3,62.6,30.33,South,180,6.4,16.1,63,0.00,,,0.00,WUHU21636XXSP,2013-07-18 05:10:00,
2013-07-18 00:20:00,75.9,62.8,30.33,SSW,202,6.4,15.6,64,0.00,,,0.00,WUHU21636XXSP,2013-07-18 05:20:00,
2013-07-18 00:30:00,75.7,63.0,30.33,SSW,202,6.9,14.7,65,0.00,,,0.00,WUHU21636XXSP,2013-07-18 05:30:00,
2013-07-18 00:40:00,75.4,62.6,30.33,SSW,202,5.8,15.2,65,0.00,,,0.00,WUHU21636XXSP,2013-07-18 05:40:00,
2013-07-18 00:50:00,75.0,62.8,30.33,SSW,202,4.4,13.4,66,0.00,,,0.00,WUHU21636XXSP,2013-07-18 05:50:00,
2013-07-18 01:00:00,74.8,62.6,30.33,SSW,202,3.1,14.7,66,0.00,,,0.00,WUHU21636XXSP,2013-07-18 06:00:00,
2013-07-18 01:11:00,74.5,62.2,30.33,SW,225,3.8,13.6,66,0.00,,,0.00,WUHU21636XXSP,2013-07-18 06:11:00,
2013-07-18 01:21:00,74.3,62.6,30.33,SSW,202,8.5,14.7,67,0.00,,,0.00,WUHU21636XXSP,2013-07-18 06:21:00,
2013-07-18 01:31:00,74.1,62.4,30.33,South,180,6.0,15.6,67,0.00,,,0.00,WUHU21636XXSP,2013-07-18 06:31:00,
2013-07-18 01:41:00,73.8,62.4,30.33,SSW,202,9.3,14.0,68,0.00,,,0.00,WUHU21636XXSP,2013-07-18 06:41:00,
2013-07-18 01:51:00,73.6,62.2,30.33,SSW,202,8.2,13.6,68,0.00,,,0.00,WUHU21636XXSP,2013-07-18 06:51:00,
2013-07-18 02:01:00,73.2,62.4,30.32,SW,225,6.0,14.0,69,0.00,,,0.00,WUHU21636XXSP,2013-07-18 07:01:00,
2013-07-18 02:11:00,73.0,62.2,30.32,SW,225,5.8,11.4,69,0.00,,,0.00,WUHU21636XXSP,2013-07-18 07:11:00,
2013-07-18 02:21:00,73.0,62.2,30.32,SW,225,5.3,13.1,69,0.00,,,0.00,WUHU21636XXSP,2013-07-18 07:21:00,
2013-07-18 02:31:00,72.7,62.4,30.32,SSW,202,6.2,12.0,70,0.00,,,0.00,WUHU21636XXSP,2013-07-18 07:31:00,
2013-07-18 02:41:00,72.3,62.4,30.32,SSW,202,6.4,14.7,71,0.00,,,0.00,WUHU21636XXSP,2013-07-18 07:41:00,
2013-07-18 02:51:00,72.1,62.2,30.32,SSW,202,4.0,11.6,71,0.00,,,0.00,WUHU21636XXSP,2013-07-18 07:51:00,
2013-07-18 03:01:00,72.0,62.4,30.32,SW,225,8.5,11.1,72,0.00,,,0.00,WUHU21636XXSP,2013-07-18 08:01:00,
2013-07-18 03:11:00,71.8,62.2,30.31,SSW,202,8.0,12.9,72,0.00,,,0.00,WUHU21636XXSP,2013-07-18 08:11:00,
2013-07-18 03:21:00,71.4,61.9,30.31,SSW,202,4.2,10.5,72,0.00,,,0.00,WUHU21636XXSP,2013-07-18 08:21:00,
2013-07-18 03:31:00,71.2,62.1,30.31,SSW,202,4.6,8.9,73,0.00,,,0.00,WUHU21636XXSP,2013-07-18 08:31:00,
2013-07-18 03:41:00,71.2,62.4,30.31,SSW,202,5.5,12.0,74,0.00,,,0.00,WUHU21636XXSP,2013-07-18 08:41:00,
2013-07-18 03:51:00,70.9,62.1,30.31,South,180,3.5,9.3,74,0.00,,,0.00,WUHU21636XXSP,2013-07-18 08:51:00,
2013-07-18 04:01:00,70.5,62.1,30.30,SSW,202,4.2,13.6,75,0.00,,,0.00,WUHU21636XXSP,2013-07-18 09:01:00,
2013-07-18 04:11:00,70.5,62.4,30.31,SSW,202,3.5,11.4,76,0.00,,,0.00,WUHU21636XXSP,2013-07-18 09:11:00,
2013-07-18 04:21:00,70.2,62.4,30.30,SSW,202,5.1,12.5,77,0.00,,,0.00,WUHU21636XXSP,2013-07-18 09:21:00,
2013-07-18 04:31:00,70.0,62.2,30.29,SSW,202,5.5,9.6,77,0.00,,,0.00,WUHU21636XXSP,2013-07-18 09:31:00,
2013-07-18 04:41:00,69.8,62.4,30.29,SSW,202,8.7,9.8,78,0.00,,,0.00,WUHU21636XXSP,2013-07-18 09:41:00,
2013-07-18 04:51:00,69.6,62.8,30.30,SSW,202,5.1,12.0,79,0.00,,,0.00,WUHU21636XXSP,2013-07-18 09:51:00,
2013-07-18 05:01:00,69.4,63.0,30.30,SSW,202,5.1,11.1,80,0.00,,,0.00,WUHU21636XXSP,2013-07-18 10:01:00,
2013-07-18 05:11:00,69.4,63.0,30.29,SSW,202,1.3,8.9,81,0.00,,,0.00,WUHU21636XXSP,2013-07-18 10:11:00,
2013-07-18 05:21:00,69.4,63.3,30.29,SSW,202,4.0,6.2,81,0.00,,,0.00,WUHU21636XXSP,2013-07-18 10:21:00,
2013-07-18 05:31:00,69.1,63.3,30.29,SSW,202,4.4,8.0,82,0.00,,,0.00,WUHU21636XXSP,2013-07-18 10:31:00,
2013-07-18 05:41:00,69.1,63.3,30.28,SW,225,3.8,8.7,82,0.00,,,0.00,WUHU21636XXSP,2013-07-18 10:41:00,
2013-07-18 05:51:00,69.1,63.3,30.29,SW,225,4.0,4.6,82,0.00,,,0.00,WUHU21636XXSP,2013-07-18 10:51:00,
2013-07-18 06:01:00,68.9,63.1,30.28,SSW,202,0.0,5.5,82,0.00,,,0.00,WUHU21636XXSP,2013-07-18 11:01:00,
2013-07-18 06:11:00,68.9,63.1,30.28,SSW,202,4.4,5.5,82,0.00,,,0.00,WUHU21636XXSP,2013-07-18 11:11:00,
2013-07-18 06:21:00,68.9,63.1,30.29,SSW,202,3.5,4.4,82,0.00,,,0.00,WUHU21636XXSP,2013-07-18 11:21:00,
2013-07-18 06:31:00,68.7,63.0,30.28,SSW,202,1.5,7.8,82,0.00,,,0.00,WUHU21636XXSP,2013-07-18 11:31:00,
2013-07-18 06:41:00,68.7,63.0,30.28,SSW,202,3.3,6.7,82,0.00,,,0.00,WUHU21636XXSP,2013-07-18 11:41:00,
2013-07-18 06:51:00,68.7,63.0,30.28,SSW,202,3.5,5.8,82,0.00,,,0.00,WUHU21636XXSP,2013-07-18 11:51:00,
2013-07-18 07:01:00,68.5,63.1,30.28,SSW,202,5.5,8.0,83,0.00,,,0.00,WUHU21636XXSP,2013-07-18 12:01:00,
2013-07-18 07:11:00,68.5,63.1,30.28,SSW,202,4.9,6.9,83,0.00,,,0.00,WUHU21636XXSP,2013-07-18 12:11:00,
2013-07-18 07:21:00,68.5,63.1,30.27,SSW,202,4.4,10.7,83,0.00,,,0.00,WUHU21636XXSP,2013-07-18 12:21:00,
2013-07-18 07:31:00,68.5,63.1,30.27,SSW,202,5.3,9.8,83,0.00,,,0.00,WUHU21636XXSP,2013-07-18 12:31:00,
2013-07-18 07:41:00,68.7,63.3,30.27,South,180,2.9,8.5,83,0.00,,,0.00,WUHU21636XXSP,2013-07-18 12:41:00,
2013-07-18 07:51:00,68.9,63.7,30.28,SSW,202,2.0,8.9,84,0.00,,,0.00,WUHU21636XXSP,2013-07-18 12:51:00,
2013-07-18 08:01:00,69.3,63.7,30.27,SSW,202,4.4,10.5,83,0.00,,,0.00,WUHU21636XXSP,2013-07-18 13:01:00,
2013-07-18 08:11:00,69.6,63.7,30.28,SSW,202,7.8,9.8,82,0.00,,,0.00,WUHU21636XXSP,2013-07-18 13:11:00,
2013-07-18 08:21:00,70.5,64.2,30.27,South,180,8.5,12.9,81,0.00,,,0.00,WUHU21636XXSP,2013-07-18 13:21:00,
2013-07-18 08:31:00,71.2,64.2,30.27,SSW,202,8.7,18.7,79,0.00,,,0.00,WUHU21636XXSP,2013-07-18 13:31:00,
2013-07-18 08:41:00,72.1,64.4,30.27,SSW,202,6.9,17.8,77,0.00,,,0.00,WUHU21636XXSP,2013-07-18 13:41:00,
2013-07-18 08:51:00,72.7,64.9,30.27,SW,225,10.0,20.3,77,0.00,,,0.00,WUHU21636XXSP,2013-07-18 13:51:00,
2013-07-18 09:01:00,73.2,64.8,30.27,SSW,202,10.2,20.8,75,0.00,,,0.00,WUHU21636XXSP,2013-07-18 14:01:00,
2013-07-18 09:11:00,73.9,64.8,30.27,SW,225,10.5,20.5,73,0.00,,,0.00,WUHU21636XXSP,2013-07-18 14:11:00,
2013-07-18 09:21:00,74.8,64.8,30.27,SW,225,13.1,23.2,71,0.00,,,0.00,WUHU21636XXSP,2013-07-18 14:21:00,
2013-07-18 09:31:00,75.4,64.4,30.27,WSW,247,9.6,21.9,69,0.00,,,0.00,WUHU21636XXSP,2013-07-18 14:31:00,
2013-07-18 09:41:00,75.9,64.6,30.27,SSW,202,12.9,19.2,68,0.00,,,0.00,WUHU21636XXSP,2013-07-18 14:41:00,
2013-07-18 09:51:00,76.6,64.8,30.27,SW,225,13.1,23.0,67,0.00,,,0.00,WUHU21636XXSP,2013-07-18 14:51:00,
2013-07-18 10:02:00,76.8,64.6,30.27,WSW,247,12.0,22.5,66,0.00,,,0.00,WUHU21636XXSP,2013-07-18 15:02:00,
2013-07-18 10:12:00,77.5,64.2,30.27,SSW,202,15.2,22.1,64,0.00,,,0.00,WUHU21636XXSP,2013-07-18 15:12:00,
2013-07-18 10:22:00,78.3,64.6,30.27,SW,225,10.0,22.5,63,0.00,,,0.00,WUHU21636XXSP,2013-07-18 15:22:00,
2013-07-18 10:32:00,78.6,64.4,30.27,SW,225,9.1,25.5,62,0.00,,,0.00,WUHU21636XXSP,2013-07-18 15:32:00,
2013-07-18 10:42:00,79.0,64.8,30.27,SW,225,13.4,22.1,62,0.00,,,0.00,WUHU21636XXSP,2013-07-18 15:42:00,
2013-07-18 10:52:00,79.5,64.4,30.26,SSW,202,14.3,23.4,60,0.00,,,0.00,WUHU21636XXSP,2013-07-18 15:52:00,
2013-07-18 11:02:00,80.2,64.6,30.26,SSW,202,12.9,25.2,59,0.00,,,0.00,WUHU21636XXSP,2013-07-18 16:02:00,
2013-07-18 11:12:00,81.1,64.4,30.26,SW,225,12.0,23.2,57,0.00,,,0.00,WUHU21636XXSP,2013-07-18 16:12:00,
2013-07-18 11:22:00,81.7,64.2,30.25,WSW,247,13.6,26.1,57,0.00,,,0.00,WUHU21636XXSP,2013-07-18 16:22:00,
2013-07-18 11:32:00,82.0,64.6,30.25,WSW,247,16.3,27.2,56,0.00,,,0.00,WUHU21636XXSP,2013-07-18 16:32:00,
2013-07-18 11:42:00,82.6,64.6,30.24,SW,225,6.7,26.3,55,0.00,,,0.00,WUHU21636XXSP,2013-07-18 16:42:00,
2013-07-18 11:52:00,82.9,63.9,30.25,West,270,13.8,30.4,53,0.00,,,0.00,WUHU21636XXSP,2013-07-18 16:52:00,
2013-07-18 12:02:00,83.5,64.9,30.24,SSW,202,11.1,26.8,54,0.00,,,0.00,WUHU21636XXSP,2013-07-18 17:02:00,
2013-07-18 12:12:00,83.5,64.4,30.24,SSW,202,17.0,28.1,53,0.00,,,0.00,WUHU21636XXSP,2013-07-18 17:12:00,
2013-07-18 12:22:00,83.8,64.2,30.24,SW,225,11.6,30.4,54,0.00,,,0.00,WUHU21636XXSP,2013-07-18 17:22:00,
2013-07-18 12:32:00,84.0,64.9,30.23,SW,225,12.3,30.8,53,0.00,,,0.00,WUHU21636XXSP,2013-07-18 17:32:00,
2013-07-18 12:42:00,84.7,64.6,30.22,SW,225,9.3,29.5,51,0.00,,,0.00,WUHU21636XXSP,2013-07-18 17:42:00,
2013-07-18 12:52:00,85.1,64.9,30.22,SW,225,14.0,24.6,51,0.00,,,0.00,WUHU21636XXSP,2013-07-18 17:52:00,
2013-07-18 13:02:00,85.6,63.7,30.21,SW,225,16.7,27.9,48,0.00,,,0.00,WUHU21636XXSP,2013-07-18 18:02:00,
2013-07-18 13:12:00,86.2,64.0,30.21,SSW,202,19.2,26.8,47,0.00,,,0.00,WUHU21636XXSP,2013-07-18 18:12:00,
2013-07-18 13:22:00,87.1,64.2,30.21,SW,225,9.8,26.1,48,0.00,,,0.00,WUHU21636XXSP,2013-07-18 18:22:00,
2013-07-18 13:32:00,88.2,65.3,30.20,SW,225,9.3,26.3,47,0.00,,,0.00,WUHU21636XXSP,2013-07-18 18:32:00,
2013-07-18 13:42:00,88.7,65.1,30.20,SSW,202,11.6,26.3,46,0.00,,,0.00,WUHU21636XXSP,2013-07-18 18:42:00,
2013-07-18 13:52:00,89.4,64.4,30.20,SW,225,10.5,28.8,44,0.00,,,0.00,WUHU21636XXSP,2013-07-18 18:52:00,
2013-07-18 14:02:00,90.1,63.7,30.19,WSW,247,13.4,34.2,41,0.00,,,0.00,WUHU21636XXSP,2013-07-18 19:02:00,
2013-07-18 14:12:00,90.7,64.9,30.19,SSW,202,16.3,27.5,42,0.00,,,0.00,WUHU21636XXSP,2013-07-18 19:12:00,
2013-07-18 14:22:00,91.0,64.6,30.19,SW,225,14.7,28.8,42,0.00,,,0.00,WUHU21636XXSP,2013-07-18 19:22:00,
2013-07-18 14:32:00,91.6,63.0,30.19,SW,225,10.5,29.0,39,0.00,,,0.00,WUHU21636XXSP,2013-07-18 19:32:00,
2013-07-18 14:42:00,91.4,62.8,30.18,SW,225,16.3,29.9,39,0.00,,,0.00,WUHU21636XXSP,2013-07-18 19:42:00,
2013-07-18 14:52:00,91.6,65.1,30.18,SSW,202,16.1,28.6,40,0.00,,,0.00,WUHU21636XXSP,2013-07-18 19:52:00,
2013-07-18 15:02:00,91.8,63.1,30.17,WSW,247,14.7,25.2,39,0.00,,,0.00,WUHU21636XXSP,2013-07-18 20:02:00,
2013-07-18 15:12:00,92.5,65.3,30.17,SSW,202,12.0,26.1,41,0.00,,,0.00,WUHU21636XXSP,2013-07-18 20:12:00,
2013-07-18 15:22:00,92.8,64.0,30.16,SSW,202,14.5,26.6,39,0.00,,,0.00,WUHU21636XXSP,2013-07-18 20:22:00,
2013-07-18 15:32:00,92.8,64.0,30.16,SW,225,14.9,29.0,40,0.00,,,0.00,WUHU21636XXSP,2013-07-18 20:32:00,
2013-07-18 15:42:00,93.4,64.6,30.16,SW,225,19.0,27.5,39,0.00,,,0.00,WUHU21636XXSP,2013-07-18 20:42:00,
2013-07-18 15:52:00,93.9,64.2,30.15,SSW,202,17.4,26.6,38,0.00,,,0.00,WUHU21636XXSP,2013-07-18 20:52:00,
2013-07-18 16:02:00,94.1,65.3,30.15,SW,225,12.9,28.6,38,0.00,,,0.00,WUHU21636XXSP,2013-07-18 21:02:00,
2013-07-18 16:12:00,93.7,63.3,30.15,SW,225,18.7,27.2,37,0.00,,,0.00,WUHU21636XXSP,2013-07-18 21:12:00,
2013-07-18 16:22:00,94.3,65.3,30.15,SSW,202,14.9,25.2,37,0.00,,,0.00,WUHU21636XXSP,2013-07-18 21:22:00,
2013-07-18 16:32:00,94.5,63.9,30.14,SW,225,16.5,25.2,37,0.00,,,0.00,WUHU21636XXSP,2013-07-18 21:32:00,
2013-07-18 16:42:00,94.8,65.8,30.14,WSW,247,10.2,21.9,39,0.00,,,0.00,WUHU21636XXSP,2013-07-18 21:42:00,
2013-07-18 16:52:00,94.8,65.8,30.14,SW,225,15.8,24.1,37,0.00,,,0.00,WUHU21636XXSP,2013-07-18 21:52:00,
2013-07-18 17:02:00,94.6,64.0,30.14,SW,225,8.0,24.3,37,0.00,,,0.00,WUHU21636XXSP,2013-07-18 22:02:00,
2013-07-18 17:12:00,94.6,64.0,30.13,SW,225,17.0,29.7,37,0.00,,,0.00,WUHU21636XXSP,2013-07-18 22:12:00,
2013-07-18 17:22:00,94.6,64.0,30.13,SW,225,16.1,23.2,37,0.00,,,0.00,WUHU21636XXSP,2013-07-18 22:22:00,
2013-07-18 17:32:00,94.6,63.3,30.12,SSW,202,18.1,24.8,35,0.00,,,0.00,WUHU21636XXSP,2013-07-18 22:32:00,
2013-07-18 17:42:00,94.8,65.1,30.12,SW,225,15.6,21.2,37,0.00,,,0.00,WUHU21636XXSP,2013-07-18 22:42:00,
2013-07-18 17:52:00,94.8,63.5,30.12,SSW,202,10.0,22.5,38,0.00,,,0.00,WUHU21636XXSP,2013-07-18 22:52:00,
2013-07-18 18:02:00,94.3,64.6,30.12,SW,225,17.4,23.2,37,0.00,,,0.00,WUHU21636XXSP,2013-07-18 23:02:00,
2013-07-18 18:12:00,94.6,63.3,30.11,SSW,202,9.6,26.3,35,0.00,,,0.00,WUHU21636XXSP,2013-07-18 23:12:00,
2013-07-18 18:22:00,94.8,62.6,30.11,SSW,202,8.7,19.9,36,0.00,,,0.00,WUHU21636XXSP,2013-07-18 23:22:00,
2013-07-18 18:32:00,93.9,63.5,30.11,SW,225,8.9,22.3,37,0.00,,,0.00,WUHU21636XXSP,2013-07-18 23:32:00,
2013-07-18 18:42:00,93.7,64.0,30.11,SW,225,8.7,19.6,38,0.00,,,0.00,WUHU21636XXSP,2013-07-18 23:42:00,
2013-07-18 18:52:00,93.6,63.9,30.11,WSW,247,10.0,21.9,38,0.00,,,0.00,WUHU21636XXSP,2013-07-18 23:52:00,
2013-07-18 19:02:00,93.4,63.7,30.10,SSW,202,11.4,21.9,38,0.00,,,0.00,WUHU21636XXSP,2013-07-19 00:02:00,
2013-07-18 19:12:00,92.8,64.0,30.10,SSW,202,7.1,20.3,39,0.00,,,0.00,WUHU21636XXSP,2013-07-19 00:12:00,
2013-07-18 19:22:00,92.3,63.7,30.10,SSW,202,12.5,20.8,38,0.00,,,0.00,WUHU21636XXSP,2013-07-19 00:22:00,
2013-07-18 19:32:00,91.9,64.0,30.10,SW,225,10.2,20.5,39,0.00,,,0.00,WUHU21636XXSP,2013-07-19 00:32:00,
2013-07-18 19:42:00,91.4,62.8,30.10,SSW,202,10.0,22.5,39,0.00,,,0.00,WUHU21636XXSP,2013-07-19 00:42:00,
2013-07-18 19:52:00,90.9,63.1,30.10,SSW,202,9.6,17.8,40,0.00,,,0.00,WUHU21636XXSP,2013-07-19 00:52:00,
2013-07-18 20:02:00,90.1,62.4,30.09,SSW,202,10.2,22.1,40,0.00,,,0.00,WUHU21636XXSP,2013-07-19 01:02:00,
2013-07-18 20:12:00,89.4,62.4,30.10,SW,225,10.2,20.8,41,0.00,,,0.00,WUHU21636XXSP,2013-07-19 01:12:00,
2013-07-18 20:22:00,88.9,62.6,30.10,SW,225,9.6,17.8,42,0.00,,,0.00,WUHU21636XXSP,2013-07-19 01:22:00,
2013-07-18 20:32:00,88.3,62.8,30.10,SSW,202,8.7,18.5,43,0.00,,,0.00,WUHU21636XXSP,2013-07-19 01:32:00,
2013-07-18 20:42:00,87.6,62.2,30.09,SSW,202,6.4,17.2,43,0.00,,,0.00,WUHU21636XXSP,2013-07-19 01:42:00,
2013-07-18 20:52:00,87.1,62.4,30.10,SSW,202,4.0,15.8,44,0.00,,,0.00,WUHU21636XXSP,2013-07-19 01:52:00,
2013-07-18 21:02:00,86.7,62.8,30.10,South,180,3.1,13.1,45,0.00,,,0.00,WUHU21636XXSP,2013-07-19 02:02:00,
2013-07-18 21:12:00,86.2,62.2,30.10,South,180,6.4,17.0,45,0.00,,,0.00,WUHU21636XXSP,2013-07-19 02:12:00,
2013-07-18 21:22:00,85.6,62.4,30.11,SSW,202,6.4,11.8,46,0.00,,,0.00,WUHU21636XXSP,2013-07-19 02:22:00,
2013-07-18 21:32:00,84.9,61.7,30.11,SSW,202,8.7,14.3,46,0.00,,,0.00,WUHU21636XXSP,2013-07-19 02:32:00,
2013-07-18 21:42:00,84.4,61.9,30.11,SSW,202,6.2,12.9,47,0.00,,,0.00,WUHU21636XXSP,2013-07-19 02:42:00,
2013-07-18 21:52:00,83.8,62.1,30.12,South,180,6.2,13.1,48,0.00,,,0.00,WUHU21636XXSP,2013-07-19 02:52:00,
2013-07-18 22:02:00,83.5,61.7,30.12,South,180,2.9,8.9,48,0.00,,,0.00,WUHU21636XXSP,2013-07-19 03:02:00,
2013-07-18 22:12:00,82.9,61.7,30.12,SSW,202,4.4,4.9,49,0.00,,,0.00,WUHU21636XXSP,2013-07-19 03:12:00,
2013-07-18 22:22:00,82.6,62.1,30.13,South,180,3.8,12.7,50,0.00,,,0.00,WUHU21636XXSP,2013-07-19 03:22:00,
2013-07-18 22:32:00,82.0,61.5,30.13,SSW,202,9.3,12.9,50,0.00,,,0.00,WUHU21636XXSP,2013-07-19 03:32:00,
2013-07-18 22:42:00,82.0,62.1,30.14,South,180,6.4,13.4,51,0.00,,,0.00,WUHU21636XXSP,2013-07-19 03:42:00,
2013-07-18 22:52:00,81.5,61.5,30.14,South,180,6.9,11.8,51,0.00,,,0.00,WUHU21636XXSP,2013-07-19 03:52:00,
2013-07-18 23:03:00,81.1,61.7,30.14,SSE,157,8.0,14.7,52,0.00,,,0.00,WUHU21636XXSP,2013-07-19 04:03:00,
2013-07-18 23:13:00,80.8,61.3,30.14,SSW,202,5.3,13.8,52,0.00,,,0.00,WUHU21636XXSP,2013-07-19 04:13:00,
2013-07-18 23:23:00,80.4,61.5,30.14,South,180,6.9,11.8,53,0.00,,,0.00,WUHU21636XXSP,2013-07-19 04:23:00,
2013-07-18 23:33:00,79.9,61.7,30.14,SSW,202,4.6,13.6,54,0.00,,,0.00,WUHU21636XXSP,2013-07-19 04:33:00,
2013-07-18 23:43:00,79.5,61.9,30.15,SSW,202,4.6,12.5,55,0.00,,,0.00,WUHU21636XXSP,2013-07-19 04:43:00,
2013-07-18 23:53:00,79.3,61.7,30.15,SSW,202,6.2,10.9,55,0.00,,,0.00,WUHU21636XXSP,2013-07-19 04:53:00,